Date String (YYYY-MM-DD hh:mm:ss) UTC,Instrument flags,Ambient pressure (hPa),Sample flow (lpm),Bypass flow (lpm),Sample temperature (°C),Ambient temperature (°C),ASC tube jacket temperature (°C),LED temperature (°C),Box temperature (°C),Sample RH (%),Span deviation,Mass concentration (μg/m³),Mass concentration (μg/m³),Mass concentration (μg/m³)
DateTimeUTC,F1_M11,P_M11,Q1_M11,Q2_M11,T1_M11,T2_M11,T3_M11,T4_M11,T5_M11,U1_M11,ZSPAN_M11,X2_M11,X0_M11,X1_M11
2022-07-03 00:00:00,,0827.4,5.00,0.00,29.4,28.1,00.0,38.1,31.4,26.4,0000.0,0004.53,0010.38,0003.69
2022-07-03 00:01:00,,0827.2,5.00,0.00,29.5,28.3,00.0,38.1,31.4,26.2,0000.0,0004.52,0010.48,0003.67
2022-07-03 00:02:00,,0827.2,5.00,0.00,29.5,28.4,00.0,38.2,31.5,26.0,0000.0,0004.46,0009.99,0003.65
2022-07-03 00:03:00,,0827.2,4.99,0.00,29.5,28.2,00.0,38.1,31.5,26.4,0000.0,0004.41,0009.90,0003.62
2022-07-03 00:04:00,,0827.2,5.00,0.00,29.5,27.5,00.0,38.1,31.3,26.4,0000.0,0004.39,0010.23,0003.60
2022-07-03 00:05:00,,0827.2,5.00,0.00,29.5,27.1,00.0,38.1,31.3,25.8,0000.0,0004.34,0010.28,0003.57
2022-07-03 00:06:00,,0827.2,5.01,0.00,29.4,27.1,00.0,38.1,31.2,25.9,0000.0,0004.27,0010.67,0003.54
2022-07-03 00:07:00,,0827.1,5.00,0.00,29.4,27.2,00.0,38.1,31.1,26.1,0000.0,0004.19,0010.69,0003.51
2022-07-03 00:08:00,,0827.1,5.00,0.00,29.3,27.4,00.0,38.1,31.2,25.7,0000.0,0004.15,0009.72,0003.48
2022-07-03 00:09:00,,0827.1,5.00,0.00,29.3,27.6,00.0,38.1,31.2,25.4,0000.0,0004.14,0009.72,0003.45
2022-07-03 00:10:00,,0827.2,5.00,0.00,29.4,27.8,00.0,38.1,31.3,25.4,0000.0,0004.11,0009.59,0003.43
2022-07-03 00:11:00,,0827.2,5.01,0.00,29.4,28.0,00.0,38.1,31.3,25.5,0000.0,0004.07,0009.43,0003.40
2022-07-03 00:12:00,,0827.2,5.01,0.00,29.4,28.2,00.0,38.1,31.4,25.7,0000.0,0004.06,0009.54,0003.38
2022-07-03 00:13:00,,0827.2,5.00,0.00,29.5,28.3,00.0,38.1,31.5,25.8,0000.0,0004.04,0009.58,0003.35
2022-07-03 00:14:00,,0827.2,5.01,0.00,29.5,28.4,00.0,38.2,31.5,25.6,0000.0,0004.03,0009.61,0003.33
2022-07-03 00:15:00,,0827.2,5.01,0.00,29.5,28.0,00.0,38.1,31.4,25.9,0000.0,0004.02,0009.28,0003.31
2022-07-03 00:16:00,,0827.2,5.00,0.00,29.5,27.3,00.0,38.1,31.3,26.0,0000.0,0004.03,0009.15,0003.30
2022-07-03 00:17:00,,0827.1,5.00,0.00,29.4,27.1,00.0,38.1,31.2,25.9,0000.0,0004.05,0008.70,0003.28
2022-07-03 00:18:00,,0827.2,5.00,0.00,29.3,27.1,00.0,38.1,31.1,25.7,0000.0,0004.03,0008.23,0003.26
2022-07-03 00:19:00,,0827.2,5.00,0.00,29.3,27.3,00.0,38.1,31.1,25.7,0000.0,0003.97,0008.12,0003.24
2022-07-03 00:20:00,,0827.1,5.00,0.00,29.3,27.5,00.0,38.1,31.2,25.3,0000.0,0003.92,0008.00,0003.20
2022-07-03 00:21:00,,0827.2,5.01,0.00,29.3,27.7,00.0,38.1,31.2,25.4,0000.0,0003.88,0008.03,0003.16
2022-07-03 00:22:00,,0827.2,5.00,0.00,29.3,27.9,00.0,38.1,31.3,24.9,0000.0,0003.85,0008.67,0003.14
2022-07-03 00:23:00,,0827.2,5.01,0.00,29.4,28.0,00.0,38.1,31.3,23.9,0000.0,0003.81,0009.44,0003.10
2022-07-03 00:24:00,,0827.2,5.00,0.00,29.4,28.2,00.0,38.1,31.4,24.0,0000.0,0003.75,0009.42,0003.04
2022-07-03 00:25:00,,0827.2,5.00,0.00,29.4,28.4,00.0,38.1,31.4,23.9,0000.0,0003.71,0009.33,0002.99
2022-07-03 00:26:00,,0827.2,5.00,0.00,29.5,28.4,00.0,38.1,31.5,24.0,0000.0,0003.68,0009.28,0002.92
2022-07-03 00:27:00,,0827.2,5.01,0.00,29.5,27.7,00.0,38.1,31.4,24.0,0000.0,0003.67,0009.23,0002.87
2022-07-03 00:28:00,,0827.2,4.99,0.00,29.4,27.1,00.0,38.0,31.2,24.4,0000.0,0003.61,0009.07,0002.83
2022-07-03 00:29:00,,0827.2,5.00,0.00,29.4,27.0,00.0,38.0,31.2,24.6,0000.0,0003.58,0009.01,0002.78
2022-07-03 00:30:00,,0827.2,4.99,0.00,29.3,27.1,00.0,38.0,31.1,24.8,0000.0,0003.52,0008.93,0002.76
2022-07-03 00:31:00,,0827.2,5.01,0.00,29.3,27.3,00.0,38.0,31.1,24.6,0000.0,0003.49,0008.99,0002.76
2022-07-03 00:32:00,,0827.2,5.00,0.00,29.3,27.5,00.0,38.0,31.2,24.9,0000.0,0003.48,0009.00,0002.76
2022-07-03 00:33:00,,0827.2,5.00,0.00,29.3,27.7,00.0,38.0,31.2,25.0,0000.0,0003.46,0008.50,0002.76
2022-07-03 00:34:00,,0827.2,5.01,0.00,29.3,27.9,00.0,38.0,31.3,24.6,0000.0,0003.45,0007.33,0002.77
2022-07-03 00:35:00,,0827.2,5.01,0.00,29.3,28.0,00.0,38.0,31.3,24.9,0000.0,0003.46,0006.77,0002.81
2022-07-03 00:36:00,,0827.2,5.00,0.00,29.4,28.2,00.0,38.1,31.4,24.7,0000.0,0003.49,0006.88,0002.85
2022-07-03 00:37:00,,0827.2,5.00,0.00,29.4,28.3,00.0,38.1,31.4,24.5,0000.0,0003.51,0006.92,0002.88
2022-07-03 00:38:00,,0827.2,5.01,0.00,29.5,28.4,00.0,38.1,31.5,24.4,0000.0,0003.51,0006.87,0002.92
2022-07-03 00:39:00,,0827.1,5.00,0.00,29.5,28.0,00.0,38.1,31.4,24.4,0000.0,0003.52,0006.88,0002.93
2022-07-03 00:40:00,,0827.2,5.00,0.00,29.4,27.2,00.0,38.0,31.3,24.4,0000.0,0003.53,0006.81,0002.97
2022-07-03 00:41:00,,0827.1,4.99,0.00,29.4,27.0,00.0,38.0,31.2,24.4,0000.0,0003.57,0006.83,0003.01
2022-07-03 00:42:00,,0827.1,5.00,0.00,29.3,27.1,00.0,38.0,31.1,24.5,0000.0,0003.61,0006.67,0003.05
2022-07-03 00:43:00,,0827.1,4.99,0.00,29.3,27.2,00.0,38.0,31.1,24.5,0000.0,0003.63,0006.70,0003.08
2022-07-03 00:44:00,,0827.1,5.01,0.00,29.3,27.4,00.0,38.0,31.1,24.4,0000.0,0003.65,0006.73,0003.10
2022-07-03 00:45:00,,0827.1,5.00,0.00,29.3,27.6,00.0,38.0,31.2,24.3,0000.0,0003.68,0006.94,0003.10
2022-07-03 00:46:00,,0827.1,5.00,0.00,29.3,27.8,00.0,38.0,31.2,24.3,0000.0,0003.72,0007.06,0003.10
2022-07-03 00:47:00,,0827.2,5.01,0.00,29.3,28.0,00.0,38.0,31.3,24.1,0000.0,0003.74,0007.29,0003.12
2022-07-03 00:48:00,,0827.2,5.01,0.00,29.4,28.1,00.0,38.0,31.3,23.9,0000.0,0003.77,0007.43,0003.13
2022-07-03 00:49:00,,0827.2,4.99,0.00,29.4,28.3,00.0,38.1,31.4,24.0,0000.0,0003.79,0008.38,0003.13
2022-07-03 00:50:00,,0827.2,4.99,0.00,29.4,28.4,00.0,38.1,31.4,24.2,0000.0,0003.86,0008.91,0003.14
2022-07-03 00:51:00,,0827.2,5.00,0.00,29.5,28.1,00.0,38.1,31.4,24.2,0000.0,0003.91,0009.26,0003.15
2022-07-03 00:52:00,,0827.2,5.01,0.00,29.4,27.4,00.0,38.0,31.3,24.3,0000.0,0003.94,0009.35,0003.17
2022-07-03 00:53:00,,0827.1,5.00,0.00,29.4,27.0,00.0,38.0,31.2,24.4,0000.0,0003.95,0009.40,0003.18
2022-07-03 00:54:00,,0827.1,5.00,0.00,29.3,27.0,00.0,38.0,31.1,24.3,0000.0,0003.96,0009.42,0003.17
2022-07-03 00:55:00,,0827.2,5.01,0.00,29.3,27.1,00.0,38.0,31.1,24.6,0000.0,0004.00,0009.52,0003.18
2022-07-03 00:56:00,,0827.1,5.01,0.00,29.2,27.3,00.0,38.0,31.1,24.3,0000.0,0003.99,0009.62,0003.20
2022-07-03 00:57:00,,0827.1,5.01,0.00,29.2,27.5,00.0,38.0,31.1,24.2,0000.0,0003.99,0009.58,0003.21
2022-07-03 00:58:00,,0827.1,4.99,0.00,29.3,27.7,00.0,38.0,31.2,24.3,0000.0,0003.97,0009.48,0003.22
2022-07-03 00:59:00,,0827.1,5.00,0.00,29.3,27.9,00.0,38.0,31.2,23.9,0000.0,0003.94,0009.40,0003.22
